| time (UTC) | temp C | wind direction | speed KPH | gust KPH | rain 1hr cm | rain 24hr cm | rain mn cm | humidity % | barometer mb |
| 20260505153249 | 24 | 94 | 4.8 | 12.9 | 0.00 | 0.00 | 0.00 | 73 | 1011.6 |
| 20260505152744 | 23 | 295 | 4.8 | 17.7 | 0.00 | 0.00 | 0.00 | 74 | 1011.6 |
| 20260505152506 | 23 | 46 | 4.8 | 17.7 | 0.00 | 0.00 | 0.00 | 74 | 1011.7 |
| 20260505151744 | 23 | 139 | 6.4 | 19.3 | 0.00 | 0.00 | 0.00 | 74 | 1011.8 |
| 20260505151244 | 23 | 213 | 8.0 | 20.9 | 0.00 | 0.00 | 0.00 | 72 | 1011.8 |
| 20260505150740 | 23 | 269 | 6.4 | 20.9 | 0.00 | 0.00 | 0.00 | 71 | 1011.8 |
| 20260505150240 | 23 | 283 | 6.4 | 16.1 | 0.00 | 0.00 | 0.00 | 72 | 1011.8 |
| 20260505140236 | 22 | 314 | 6.4 | 24.1 | 0.00 | 0.00 | 0.00 | 72 | 1011.7 |
| 20260505130230 | 18 | 178 | 4.8 | 16.1 | 0.00 | 0.00 | 0.00 | 76 | 1012.3 |
| 20260505124707 | 17 | 130 | 3.2 | 16.1 | 0.00 | 0.00 | 0.00 | 78 | 1012.3 |
| 20260505124201 | 17 | 206 | 3.2 | 16.1 | 0.00 | 0.00 | 0.00 | 78 | 1012.3 |
| 20260505123655 | 17 | 307 | 3.2 | 12.9 | 0.00 | 0.00 | 0.00 | 78 | 1012.3 |
| 20260505123149 | 17 | 1 | 3.2 | 12.9 | 0.00 | 0.00 | 0.00 | 79 | 1012.2 |
| 20260505122642 | 16 | 258 | 3.2 | 14.5 | 0.00 | 0.00 | 0.00 | 79 | 1012.1 |
| 20260505122137 | 16 | 262 | 4.8 | 14.5 | 0.00 | 0.00 | 0.00 | 80 | 1012.0 |
| 20260505121631 | 16 | 283 | 4.8 | 14.5 | 0.00 | 0.00 | 0.00 | 80 | 1012.0 |
| 20260505121610 | 16 | 324 | 3.2 | 14.5 | 0.00 | 0.00 | 0.00 | 81 | 1011.9 |
| 20260505120843 | 16 | 269 | 3.2 | 16.1 | 0.00 | 0.00 | 0.00 | 81 | 1011.8 |
| 20260505120113 | 15 | 299 | 3.2 | 16.1 | 0.00 | 0.00 | 0.00 | 82 | 1011.9 |
| 20260505115607 | 15 | 206 | 3.2 | 11.3 | 0.00 | 0.00 | 0.00 | 82 | 1011.9 |
| 20260505115101 | 15 | 223 | 3.2 | 11.3 | 0.00 | 0.00 | 0.00 | 83 | 1011.8 |
| 20260505114555 | 15 | 213 | 3.2 | 11.3 | 0.00 | 0.00 | 0.00 | 83 | 1011.8 |
| 20260505114048 | 15 | 210 | 3.2 | 14.5 | 0.00 | 0.00 | 0.00 | 84 | 1011.8 |
| 20260505113543 | 15 | 234 | 3.2 | 14.5 | 0.00 | 0.00 | 0.00 | 84 | 1011.8 |
| 20260505113040 | 14 | 290 | 3.2 | 11.3 | 0.00 | 0.00 | 0.00 | 84 | 1011.8 |
| 20260505112541 | 14 | 241 | 3.2 | 11.3 | 0.00 | 0.00 | 0.00 | 85 | 1011.8 |
| 20260505112041 | 14 | 145 | 3.2 | 11.3 | 0.00 | 0.00 | 0.00 | 85 | 1011.8 |
| 20260505111540 | 13 | 89 | 3.2 | 11.3 | 0.00 | 0.00 | 0.00 | 85 | 1011.7 |
| 20260505111258 | 13 | 245 | 3.2 | 9.7 | 0.00 | 0.00 | 0.00 | 85 | 1011.6 |
| 20260505110801 | 13 | 269 | 3.2 | 9.7 | 0.00 | 0.00 | 0.00 | 86 | 1011.5 |
| 20260505102037 | 12 | 46 | 1.6 | 6.4 | 0.00 | 0.00 | 0.00 | 87 | 1011.2 |
| 20260505101537 | 12 | 306 | 1.6 | 4.8 | 0.00 | 0.00 | 0.00 | 87 | 1011.1 |
| 20260505101036 | 12 | 257 | 1.6 | 8.0 | 0.00 | 0.00 | 0.00 | 87 | 1011.1 |
| 20260505100537 | 12 | 148 | 1.6 | 8.0 | 0.00 | 0.00 | 0.00 | 87 | 1011.2 |
| 20260505100037 | 12 | 223 | 1.6 | 6.4 | 0.00 | 0.00 | 0.00 | 87 | 1011.2 |
| 20260505095536 | 12 | 269 | 1.6 | 6.4 | 0.00 | 0.00 | 0.00 | 87 | 1011.2 |
| 20260505095042 | 12 | 46 | 0.0 | 3.2 | 0.00 | 0.00 | 0.00 | 87 | 1011.1 |
| 20260505094536 | 12 | 20 | 0.0 | 8.0 | 0.00 | 0.00 | 0.00 | 87 | 1011.0 |
| 20260505094037 | 12 | 117 | 0.0 | 8.0 | 0.00 | 0.00 | 0.00 | 87 | 1011.0 |
| 20260505093536 | 13 | 1 | 0.0 | 3.2 | 0.00 | 0.00 | 0.00 | 87 | 1010.9 |
| 20260505093029 | 13 | 117 | 0.0 | 3.2 | 0.00 | 0.00 | 0.00 | 87 | 1010.9 |
| 20260505092523 | 13 | 117 | 1.6 | 4.8 | 0.00 | 0.00 | 0.00 | 87 | 1010.9 |
| 20260505092023 | 13 | 161 | 1.6 | 6.4 | 0.00 | 0.00 | 0.00 | 87 | 1010.8 |
| 20260505091729 | 13 | 63 | 1.6 | 6.4 | 0.00 | 0.00 | 0.00 | 87 | 1010.8 |
| 20260505091232 | 13 | 127 | 1.6 | 6.4 | 0.00 | 0.00 | 0.00 | 87 | 1010.8 |
| 20260505090500 | 13 | 135 | 1.6 | 6.4 | 0.00 | 0.00 | 0.00 | 87 | 1010.8 |
| 20260505085954 | 13 | 46 | 1.6 | 6.4 | 0.00 | 0.00 | 0.00 | 87 | 1010.8 |
| 20260505085709 | 13 | 314 | 1.6 | 6.4 | 0.00 | 0.00 | 0.00 | 87 | 1010.7 |
| 20260505084942 | 13 | 269 | 1.6 | 6.4 | 0.00 | 0.00 | 0.00 | 87 | 1010.8 |
| 20260505084436 | 13 | 1 | 0.0 | 6.4 | 0.00 | 0.00 | 0.00 | 87 | 1010.8 |
| 20260505084151 | 13 | 46 | 1.6 | 9.7 | 0.00 | 0.00 | 0.00 | 87 | 1010.7 |
| 20260505083423 | 13 | 135 | 1.6 | 9.7 | 0.00 | 0.00 | 0.00 | 87 | 1010.7 |
| 20260505082917 | 13 | 223 | 0.0 | 3.2 | 0.00 | 0.00 | 0.00 | 87 | 1010.7 |
| 20260505082411 | 13 | 296 | 0.0 | 3.2 | 0.00 | 0.00 | 0.00 | 88 | 1010.8 |
| 20260505081905 | 13 | 269 | 1.6 | 6.4 | 0.00 | 0.00 | 0.00 | 88 | 1010.9 |
| 20260505081619 | 13 | 117 | 1.6 | 6.4 | 0.00 | 0.00 | 0.00 | 88 | 1010.9 |
| 20260505080854 | 13 | 178 | 1.6 | 6.4 | 0.00 | 0.00 | 0.00 | 88 | 1010.8 |
| 20260505080348 | 13 | 269 | 1.6 | 8.0 | 0.00 | 0.00 | 0.00 | 89 | 1010.8 |
| 20260505075842 | 13 | 257 | 3.2 | 9.7 | 0.00 | 0.00 | 0.00 | 89 | 1010.7 |
| 20260505075336 | 12 | 223 | 1.6 | 9.7 | 0.00 | 0.00 | 0.00 | 89 | 1010.8 |
| 20260505074830 | 12 | 269 | 1.6 | 6.4 | 0.00 | 0.00 | 0.00 | 89 | 1010.7 |
| 20260505074324 | 12 | 269 | 1.6 | 6.4 | 0.00 | 0.00 | 0.00 | 90 | 1010.7 |
| 20260505073818 | 12 | 145 | 1.6 | 4.8 | 0.00 | 0.00 | 0.00 | 90 | 1010.7 |
| 20260505073312 | 12 | 1 | 0.0 | 4.8 | 0.00 | 0.00 | 0.00 | 90 | 1010.7 |
| 20260505073032 | 12 | 1 | 0.0 | 1.6 | 0.00 | 0.00 | 0.00 | 89 | 1010.7 |
| 20260505072300 | 12 | 89 | 0.0 | 1.6 | 0.00 | 0.00 | 0.00 | 90 | 1010.6 |
| 20260505072240 | 12 | 63 | 0.0 | 1.6 | 0.00 | 0.00 | 0.00 | 90 | 1010.6 |
| 20260505071248 | 12 | 89 | 0.0 | 1.6 | 0.00 | 0.00 | 0.00 | 90 | 1010.7 |
| 20260505070751 | 12 | 1 | 0.0 | 1.6 | 0.00 | 0.00 | 0.00 | 90 | 1010.7 |
| 20260505070245 | 12 | 1 | 1.6 | 3.2 | 0.00 | 0.00 | 0.00 | 90 | 1010.7 |
| 20260505065751 | 12 | 117 | 1.6 | 4.8 | 0.00 | 0.00 | 0.00 | 90 | 1010.7 |
| 20260505065246 | 12 | 1 | 0.0 | 4.8 | 0.00 | 0.00 | 0.00 | 89 | 1010.8 |
| 20260505064744 | 12 | 46 | 0.0 | 3.2 | 0.00 | 0.00 | 0.00 | 89 | 1010.8 |
| 20260505064241 | 12 | 178 | 0.0 | 3.2 | 0.00 | 0.00 | 0.00 | 89 | 1010.9 |
| 20260505063740 | 12 | 1 | 0.0 | 1.6 | 0.00 | 0.00 | 0.00 | 88 | 1010.7 |
| 20260505063239 | 11 | 1 | 0.0 | 1.6 | 0.00 | 0.00 | 0.00 | 88 | 1010.9 |
| 20260505062736 | 11 | 46 | 0.0 | 1.6 | 0.00 | 0.00 | 0.00 | 87 | 1010.9 |
| 20260505062236 | 11 | 46 | 0.0 | 3.2 | 0.00 | 0.00 | 0.00 | 87 | 1010.9 |
| 20260505061741 | 11 | 28 | 0.0 | 3.2 | 0.00 | 0.00 | 0.00 | 86 | 1010.9 |
| 20260505061236 | 11 | 63 | 0.0 | 1.6 | 0.00 | 0.00 | 0.00 | 86 | 1010.8 |
| 20260505060957 | 11 | 46 | 0.0 | 1.6 | 0.00 | 0.00 | 0.00 | 86 | 1010.8 |
| 20260505060236 | 12 | 46 | 0.0 | 1.6 | 0.00 | 0.00 | 0.00 | 85 | 1010.7 |
| 20260505055740 | 12 | 314 | 0.0 | 1.6 | 0.00 | 0.00 | 0.00 | 84 | 1010.8 |
| 20260505055459 | 12 | 89 | 0.0 | 1.6 | 0.00 | 0.00 | 0.00 | 84 | 1010.8 |
| 20260505054739 | 12 | 1 | 0.0 | 1.6 | 0.00 | 0.00 | 0.00 | 84 | 1010.9 |
| 20260505054234 | 12 | 20 | 0.0 | 1.6 | 0.00 | 0.00 | 0.00 | 84 | 1010.8 |
| 20260505053733 | 12 | 46 | 0.0 | 1.6 | 0.00 | 0.00 | 0.00 | 83 | 1010.8 |
| 20260505053234 | 12 | 223 | 0.0 | 1.6 | 0.00 | 0.00 | 0.00 | 83 | 1010.9 |
| 20260505052734 | 12 | 46 | 0.0 | 3.2 | 0.00 | 0.00 | 0.00 | 84 | 1010.9 |
| 20260505052233 | 12 | 46 | 0.0 | 3.2 | 0.00 | 0.00 | 0.00 | 84 | 1010.9 |
| 20260505052001 | 12 | 1 | 0.0 | 3.2 | 0.00 | 0.00 | 0.00 | 84 | 1010.8 |
| 20260505051233 | 12 | 46 | 1.6 | 6.4 | 0.00 | 0.00 | 0.00 | 84 | 1010.8 |
| 20260505050733 | 12 | 344 | 0.0 | 6.4 | 0.00 | 0.00 | 0.00 | 83 | 1010.8 |
| 20260505050237 | 12 | 35 | 0.0 | 6.4 | 0.00 | 0.00 | 0.00 | 81 | 1010.8 |
| 20260505041639 | 13 | 314 | 0.0 | 3.2 | 0.00 | 0.00 | 0.00 | 78 | 1010.7 |
| 20260505041133 | 13 | 46 | 0.0 | 1.6 | 0.00 | 0.00 | 0.00 | 78 | 1010.7 |
| 20260505040627 | 13 | 46 | 0.0 | 1.6 | 0.00 | 0.00 | 0.00 | 78 | 1010.6 |
| 20260505040121 | 13 | 89 | 0.0 | 1.6 | 0.00 | 0.00 | 0.00 | 78 | 1010.6 |
| 20260505035622 | 13 | 46 | 1.6 | 6.4 | 0.00 | 0.00 | 0.00 | 78 | 1010.6 |
| 20260505035112 | 14 | 1 | 1.6 | 6.4 | 0.00 | 0.00 | 0.00 | 78 | 1010.5 |
| 20260505034611 | 14 | 135 | 0.0 | 4.8 | 0.00 | 0.00 | 0.00 | 77 | 1010.5 |
| 20260505034100 | 14 | 178 | 0.0 | 4.8 | 0.00 | 0.00 | 0.00 | 77 | 1010.5 |
| 20260505033555 | 14 | 79 | 0.0 | 4.8 | 0.00 | 0.00 | 0.00 | 77 | 1010.6 |
| 20260505033048 | 14 | 1 | 1.6 | 4.8 | 0.00 | 0.00 | 0.00 | 77 | 1010.6 |
| 20260505032542 | 14 | 28 | 1.6 | 4.8 | 0.00 | 0.00 | 0.00 | 77 | 1010.7 |
| 20260505032036 | 14 | 117 | 1.6 | 6.4 | 0.00 | 0.00 | 0.00 | 77 | 1010.7 |
| 20260505031530 | 14 | 314 | 1.6 | 9.7 | 0.00 | 0.00 | 0.00 | 77 | 1010.7 |
| 20260505031024 | 14 | 63 | 1.6 | 9.7 | 0.00 | 0.00 | 0.00 | 76 | 1010.8 |
| 20260505030518 | 14 | 178 | 1.6 | 6.4 | 0.00 | 0.00 | 0.00 | 76 | 1010.8 |
| 20260505030012 | 14 | 46 | 1.6 | 6.4 | 0.00 | 0.00 | 0.00 | 76 | 1010.7 |
| 20260505025505 | 14 | 174 | 1.6 | 6.4 | 0.00 | 0.00 | 0.00 | 76 | 1010.7 |
| 20260505024959 | 14 | 269 | 1.6 | 4.8 | 0.00 | 0.00 | 0.00 | 76 | 1010.7 |
| 20260505024454 | 14 | 276 | 1.6 | 4.8 | 0.00 | 0.00 | 0.00 | 76 | 1010.7 |
| 20260505024203 | 14 | 142 | 1.6 | 6.4 | 0.00 | 0.00 | 0.00 | 75 | 1010.6 |
| 20260505023442 | 14 | 117 | 1.6 | 6.4 | 0.00 | 0.00 | 0.00 | 76 | 1010.7 |
| 20260505022940 | 15 | 145 | 0.0 | 3.2 | 0.00 | 0.00 | 0.00 | 75 | 1010.7 |
| 20260505022430 | 15 | 46 | 0.0 | 1.6 | 0.00 | 0.00 | 0.00 | 75 | 1010.7 |
| 20260505022151 | 15 | 28 | 0.0 | 1.6 | 0.00 | 0.00 | 0.00 | 75 | 1010.8 |
| 20260505021418 | 15 | 135 | 0.0 | 1.6 | 0.00 | 0.00 | 0.00 | 74 | 1010.9 |
| 20260505020912 | 15 | 1 | 0.0 | 1.6 | 0.00 | 0.00 | 0.00 | 74 | 1010.9 |
| 20260505020406 | 15 | 269 | 0.0 | 3.2 | 0.00 | 0.00 | 0.00 | 73 | 1010.9 |
| 20260505020122 | 15 | 89 | 0.0 | 3.2 | 0.00 | 0.00 | 0.00 | 73 | 1010.9 |
| 20260505015353 | 15 | 46 | 0.0 | 1.6 | 0.00 | 0.00 | 0.00 | 73 | 1010.9 |
| 20260505014847 | 15 | 1 | 0.0 | 4.8 | 0.00 | 0.00 | 0.00 | 73 | 1010.9 |
| 20260505014608 | 15 | 28 | 1.6 | 4.8 | 0.00 | 0.00 | 0.00 | 72 | 1010.8 |
| 20260505014059 | 15 | 1 | 0.0 | 3.2 | 0.00 | 0.00 | 0.00 | 72 | 1010.7 |
| 20260505013330 | 16 | 46 | 0.0 | 3.2 | 0.00 | 0.00 | 0.00 | 71 | 1010.6 |
| 20260505012824 | 16 | 178 | 1.6 | 4.8 | 0.00 | 0.00 | 0.00 | 71 | 1010.6 |
| 20260505012542 | 16 | 135 | 1.6 | 4.8 | 0.00 | 0.00 | 0.00 | 71 | 1010.6 |
| 20260505011815 | 16 | 286 | 0.0 | 3.2 | 0.00 | 0.00 | 0.00 | 70 | 1010.5 |
| 20260505011316 | 16 | 178 | 0.0 | 3.2 | 0.00 | 0.00 | 0.00 | 70 | 1010.5 |
| 20260505010816 | 16 | 46 | 0.0 | 4.8 | 0.00 | 0.00 | 0.00 | 70 | 1010.4 |
| 20260505010315 | 16 | 135 | 1.6 | 4.8 | 0.00 | 0.00 | 0.00 | 70 | 1010.4 |
| 20260505005816 | 16 | 141 | 1.6 | 4.8 | 0.00 | 0.00 | 0.00 | 69 | 1010.4 |
| 20260505005315 | 17 | 56 | 1.6 | 6.4 | 0.00 | 0.00 | 0.00 | 69 | 1010.3 |
| 20260505004816 | 17 | 223 | 1.6 | 6.4 | 0.00 | 0.00 | 0.00 | 68 | 1010.3 |
| 20260505004315 | 17 | 28 | 0.0 | 3.2 | 0.00 | 0.00 | 0.00 | 68 | 1010.2 |
| 20260505004254 | 17 | 269 | 1.6 | 8.0 | 0.00 | 0.00 | 0.00 | 68 | 1010.2 |
| 20260505003803 | 17 | 269 | 1.6 | 8.0 | 0.00 | 0.00 | 0.00 | 68 | 1010.2 |
| 20260505003038 | 18 | 314 | 1.6 | 6.4 | 0.00 | 0.00 | 0.00 | 67 | 1010.2 |
| 20260505002539 | 18 | 72 | 1.6 | 4.8 | 0.00 | 0.00 | 0.00 | 67 | 1010.2 |
| 20260505001814 | 18 | 1 | 1.6 | 4.8 | 0.00 | 0.00 | 0.00 | 67 | 1009.9 |
| 20260505001314 | 18 | 314 | 0.0 | 3.2 | 0.00 | 0.00 | 0.00 | 66 | 1009.9 |
| 20260505001037 | 18 | 135 | 0.0 | 3.2 | 0.00 | 0.00 | 0.00 | 65 | 1009.9 |
| 20260505000312 | 19 | 314 | 1.6 | 3.2 | 0.00 | 0.00 | 0.00 | 65 | 1009.9 |
| 20260504235811 | 19 | 213 | 1.6 | 4.8 | 0.00 | 0.00 | 0.00 | 64 | 1009.9 |
| 20260504235536 | 19 | 269 | 1.6 | 4.8 | 0.00 | 0.00 | 0.00 | 64 | 1009.8 |
| 20260504234809 | 20 | 135 | 3.2 | 17.7 | 0.00 | 0.00 | 0.00 | 63 | 1009.8 |
| 20260504234310 | 20 | 170 | 3.2 | 17.7 | 0.00 | 0.00 | 0.00 | 63 | 1009.9 |
| 20260504233809 | 20 | 292 | 3.2 | 8.0 | 0.00 | 0.00 | 0.00 | 62 | 1009.9 |
| 20260504233309 | 20 | 234 | 1.6 | 8.0 | 0.00 | 0.00 | 0.00 | 62 | 1009.9 |
| 20260504232809 | 20 | 178 | 3.2 | 9.7 | 0.00 | 0.00 | 0.00 | 62 | 1009.9 |
| 20260504232303 | 20 | 46 | 3.2 | 12.9 | 0.00 | 0.00 | 0.00 | 61 | 1009.9 |
| 20260504231754 | 21 | 245 | 3.2 | 12.9 | 0.00 | 0.00 | 0.00 | 61 | 1009.9 |
| 20260504231253 | 21 | 250 | 3.2 | 12.9 | 0.00 | 0.00 | 0.00 | 60 | 1009.9 |
| 20260504230743 | 21 | 258 | 3.2 | 19.3 | 0.00 | 0.00 | 0.00 | 60 | 1009.9 |
| 20260504230237 | 21 | 269 | 3.2 | 19.3 | 0.00 | 0.00 | 0.00 | 59 | 1009.9 |
| 20260504225730 | 21 | 142 | 4.8 | 16.1 | 0.00 | 0.00 | 0.00 | 58 | 1009.9 |
| 20260504225451 | 21 | 231 | 4.8 | 16.1 | 0.00 | 0.00 | 0.00 | 59 | 1009.9 |
| 20260504224719 | 21 | 100 | 4.8 | 16.1 | 0.00 | 0.00 | 0.00 | 59 | 1009.9 |
| 20260504224213 | 21 | 1 | 4.8 | 16.1 | 0.00 | 0.00 | 0.00 | 60 | 1009.9 |
| 20260504223707 | 21 | 146 | 4.8 | 16.1 | 0.00 | 0.00 | 0.00 | 60 | 1009.9 |
| 20260504223201 | 21 | 28 | 3.2 | 16.1 | 0.00 | 0.00 | 0.00 | 59 | 1009.9 |
| 20260504222654 | 21 | 245 | 4.8 | 25.7 | 0.00 | 0.00 | 0.00 | 60 | 1009.9 |
| 20260504222148 | 21 | 241 | 4.8 | 25.7 | 0.00 | 0.00 | 0.00 | 58 | 1009.9 |
| 20260504221643 | 22 | 253 | 4.8 | 17.7 | 0.00 | 0.00 | 0.00 | 59 | 1009.9 |
| 20260504221355 | 22 | 237 | 6.4 | 17.7 | 0.00 | 0.00 | 0.00 | 57 | 1010.0 |
| 20260504220631 | 22 | 227 | 6.4 | 17.7 | 0.00 | 0.00 | 0.00 | 58 | 1010.0 |
| 20260504220125 | 22 | 152 | 6.4 | 24.1 | 0.00 | 0.00 | 0.00 | 57 | 1009.9 |
| 20260504215618 | 22 | 243 | 6.4 | 24.1 | 0.00 | 0.00 | 0.00 | 58 | 1009.9 |
| 20260504215113 | 22 | 202 | 4.8 | 19.3 | 0.00 | 0.00 | 0.00 | 57 | 1010.0 |
| 20260504214607 | 22 | 259 | 6.4 | 20.9 | 0.00 | 0.00 | 0.00 | 57 | 1010.2 |
| 20260504214102 | 22 | 269 | 6.4 | 20.9 | 0.00 | 0.00 | 0.00 | 58 | 1010.2 |
| 20260504213601 | 22 | 188 | 4.8 | 19.3 | 0.00 | 0.00 | 0.00 | 57 | 1010.0 |
| 20260504213059 | 22 | 269 | 6.4 | 29.0 | 0.00 | 0.00 | 0.00 | 56 | 1010.2 |
| 20260504212559 | 22 | 274 | 8.0 | 29.0 | 0.00 | 0.00 | 0.00 | 58 | 1010.2 |
| 20260504212320 | 22 | 228 | 6.4 | 29.0 | 0.00 | 0.00 | 0.00 | 55 | 1010.0 |
| 20260504211559 | 22 | 241 | 6.4 | 29.0 | 0.00 | 0.00 | 0.00 | 56 | 1010.2 |
| 20260504211059 | 22 | 178 | 6.4 | 25.7 | 0.00 | 0.00 | 0.00 | 57 | 1010.2 |
| 20260504210559 | 22 | 245 | 8.0 | 22.5 | 0.00 | 0.00 | 0.00 | 58 | 1010.2 |
| 20260504210059 | 22 | 220 | 8.0 | 20.9 | 0.00 | 0.00 | 0.00 | 58 | 1010.2 |
| 20260504205559 | 22 | 269 | 8.0 | 22.5 | 0.00 | 0.00 | 0.00 | 57 | 1010.3 |
| 20260504205059 | 22 | 272 | 6.4 | 22.5 | 0.00 | 0.00 | 0.00 | 57 | 1010.2 |
| 20260504204557 | 22 | 187 | 6.4 | 20.9 | 0.00 | 0.00 | 0.00 | 57 | 1010.0 |
| 20260504204057 | 22 | 241 | 6.4 | 22.5 | 0.00 | 0.00 | 0.00 | 59 | 1010.2 |
| 20260504203601 | 22 | 274 | 8.0 | 22.5 | 0.00 | 0.00 | 0.00 | 57 | 1010.0 |
| 20260504203058 | 22 | 223 | 6.4 | 20.9 | 0.00 | 0.00 | 0.00 | 55 | 1010.2 |
| 20260504202557 | 22 | 276 | 6.4 | 20.9 | 0.00 | 0.00 | 0.00 | 57 | 1010.4 |
| 20260504202057 | 22 | 245 | 6.4 | 24.1 | 0.00 | 0.00 | 0.00 | 55 | 1010.3 |
| 20260504202040 | 22 | 28 | 8.0 | 25.7 | 0.00 | 0.00 | 0.00 | 56 | 1010.5 |
| 20260504201057 | 22 | 241 | 8.0 | 25.7 | 0.00 | 0.00 | 0.00 | 58 | 1010.6 |
| 20260504200822 | 22 | 248 | 6.4 | 16.1 | 0.00 | 0.00 | 0.00 | 59 | 1010.7 |
| 20260504200318 | 22 | 245 | 6.4 | 17.7 | 0.00 | 0.00 | 0.00 | 59 | 1010.6 |
| 20260504195810 | 22 | 89 | 8.0 | 25.7 | 0.00 | 0.00 | 0.00 | 59 | 1010.8 |
| 20260504195055 | 22 | 281 | 8.0 | 25.7 | 0.00 | 0.00 | 0.00 | 58 | 1010.9 |
| 20260504194555 | 22 | 286 | 6.4 | 17.7 | 0.00 | 0.00 | 0.00 | 60 | 1011.0 |
| 20260504194055 | 22 | 229 | 6.4 | 17.7 | 0.00 | 0.00 | 0.00 | 59 | 1011.0 |
| 20260504193815 | 22 | 338 | 6.4 | 17.7 | 0.00 | 0.00 | 0.00 | 59 | 1011.1 |
| 20260504193047 | 22 | 237 | 6.4 | 17.7 | 0.00 | 0.00 | 0.00 | 62 | 1011.2 |
| 20260504192540 | 22 | 46 | 8.0 | 29.0 | 0.00 | 0.00 | 0.00 | 59 | 1011.2 |
| 20260504192301 | 22 | 241 | 8.0 | 29.0 | 0.00 | 0.00 | 0.00 | 61 | 1011.4 |
| 20260504191528 | 22 | 277 | 8.0 | 24.1 | 0.00 | 0.00 | 0.00 | 57 | 1011.5 |
| 20260504191023 | 22 | 206 | 6.4 | 24.1 | 0.00 | 0.00 | 0.00 | 63 | 1011.6 |
| 20260504190516 | 22 | 276 | 6.4 | 24.1 | 0.00 | 0.00 | 0.00 | 61 | 1011.5 |
| 20260504190010 | 22 | 152 | 6.4 | 16.1 | 0.00 | 0.00 | 0.00 | 64 | 1011.6 |
| 20260504185504 | 22 | 139 | 6.4 | 25.7 | 0.00 | 0.00 | 0.00 | 60 | 1011.7 |
| 20260504184958 | 21 | 186 | 6.4 | 27.4 | 0.00 | 0.00 | 0.00 | 59 | 1011.6 |
| 20260504184713 | 22 | 56 | 8.0 | 27.4 | 0.00 | 0.00 | 0.00 | 58 | 1011.7 |
| 20260504184206 | 21 | 178 | 6.4 | 22.5 | 0.00 | 0.00 | 0.00 | 60 | 1011.6 |
| 20260504183440 | 21 | 250 | 6.4 | 17.7 | 0.00 | 0.00 | 0.00 | 61 | 1011.7 |
| 20260504182934 | 21 | 178 | 6.4 | 19.3 | 0.00 | 0.00 | 0.00 | 61 | 1011.7 |
| 20260504182428 | 21 | 259 | 6.4 | 19.3 | 0.00 | 0.00 | 0.00 | 59 | 1011.7 |
| 20260504182148 | 21 | 169 | 6.4 | 19.3 | 0.00 | 0.00 | 0.00 | 60 | 1011.9 |
| 20260504181415 | 21 | 269 | 6.4 | 20.9 | 0.00 | 0.00 | 0.00 | 60 | 1012.0 |
| 20260504181128 | 21 | 319 | 6.4 | 20.9 | 0.00 | 0.00 | 0.00 | 60 | 1012.0 |
| 20260504180627 | 22 | 239 | 4.8 | 17.7 | 0.00 | 0.00 | 0.00 | 60 | 1012.1 |
| 20260504175857 | 21 | 0 | 4.8 | 19.3 | 0.00 | 0.00 | 0.00 | 63 | 1012.2 |
| 20260504175610 | 21 | 269 | 6.4 | 25.7 | 0.00 | 0.00 | 0.00 | 64 | 1012.2 |
| 20260504174846 | 21 | 269 | 6.4 | 25.7 | 0.00 | 0.00 | 0.00 | 63 | 1012.2 |
| 20260504174428 | 21 | 307 | 6.4 | 17.7 | 0.00 | 0.00 | 0.00 | 61 | 1012.3 |
| 20260504173328 | 21 | 135 | 8.0 | 22.5 | 0.00 | 0.00 | 0.00 | 67 | 1012.5 |
| 20260504172822 | 21 | 307 | 6.4 | 24.1 | 0.00 | 0.00 | 0.00 | 60 | 1012.5 |
| 20260504172317 | 21 | 354 | 6.4 | 22.5 | 0.00 | 0.00 | 0.00 | 62 | 1012.6 |
| 20260504172259 | 21 | 334 | 8.0 | 22.5 | 0.00 | 0.00 | 0.00 | 60 | 1012.5 |
| 20260504171304 | 21 | 222 | 8.0 | 22.5 | 0.00 | 0.00 | 0.00 | 61 | 1012.7 |
| 20260504170758 | 21 | 245 | 8.0 | 22.5 | 0.00 | 0.00 | 0.00 | 66 | 1012.9 |
| 20260504170512 | 21 | 244 | 8.0 | 22.5 | 0.00 | 0.00 | 0.00 | 63 | 1012.8 |
| 20260504160237 | 20 | 278 | 6.4 | 17.7 | 0.00 | 0.00 | 0.00 | 64 | 1013.5 |